Flag for U.S.A. Weather past 2 weeks in Clarksville, Tennessee, U.S.A.

Now
56 °F

Partly sunny.


Feels Like: 52 °F
Forecast: 26 / 59 °F
Wind: 14 mph from South

Location: Outlaw Field

Current Time: Mar 29, 2015 at 1:19:13 PM

Latest Report: Mar 29, 2015 at 12:52 PM


Visibility: 10 mi

Pressure: 30.22 "Hg

Humidity: 24%

Dew point: 19 °F

Location of ClarksvilleLocation

Historic Weather in Clarksville — Graph

°F

Clarksville temperature yesterday

Maximum temperature yesterday: 45 °F (at 4:52 PM)
Minimum temperature yesterday: 25 °F (at 5:52 AM)
Average temperature yesterday: 35 °F

Past Weeks' High & Low Weather Summary

 TemperatureHumidityPressure
High77 °F (Mar 16, 3:52 PM)100% (Mar 16, 7:03 AM)30.36 "Hg (Mar 16, 7:03 AM)
Low23 °F (Mar 29, 5:52 AM)24% (Mar 29, 11:52 AM)29.82 "Hg (Mar 26, 3:52 AM)
Average51 °F67%30.11 "Hg
* Reported Mar 14 11:52 AM — Mar 29 11:52 AM, Clarksville, Weather by CustomWeather, © 2015

Note: Actual official high and low records may vary slightly from our data, if they occured in-between our weather recording intervals... More about our weather records

Advertising

Clarksville weather history for previous 24 hours

 ConditionsComfort  
Time TempWeatherWind HumidityBarometerVisibility
11:52 AM
Sun, Mar 29
53 °FSunny.10 mph24%30.26 "Hg10 mi
10:52 AM49 °FSunny.15 mph29%30.28 "Hg10 mi
9:52 AM43 °FSunny.14 mph38%30.32 "Hg10 mi
8:52 AM37 °FSunny.9 mph52%30.33 "Hg10 mi
7:52 AM30 °FSunny.7 mph72%30.34 "Hg10 mi
6:52 AM23 °FSunny.6 mph81%30.32 "Hg10 mi
5:52 AM23 °FClear.3 mph78%30.32 "Hg10 mi
4:52 AM24 °FClear.5 mph77%30.32 "Hg10 mi
3:52 AM27 °FClear.5 mph75%30.32 "Hg10 mi
2:52 AM29 °FClear.No wind64%30.34 "Hg10 mi
1:52 AM28 °FClear.6 mph69%30.35 "Hg10 mi
12:52 AM31 °FClear.No wind54%30.36 "Hg10 mi
11:52 PM
Sat, Mar 28
31 °FClear.No wind54%30.35 "Hg10 mi
10:52 PM34 °FClear.No wind44%30.35 "Hg10 mi
9:52 PM35 °FClear.3 mph42%30.34 "Hg10 mi
8:52 PM37 °FClear.3 mph39%30.32 "Hg10 mi
7:52 PM39 °FClear.5 mph34%30.30 "Hg10 mi
6:52 PM41 °FSunny.6 mph35%30.28 "Hg10 mi
5:52 PM45 °FSunny.5 mph26%30.28 "Hg10 mi
4:52 PM45 °FSunny.7 mph30%30.27 "Hg10 mi
3:52 PM44 °FSunny.N/A31%30.28 "Hg10 mi
2:52 PM43 °FSunny.5 mph32%30.29 "Hg10 mi
1:52 PM42 °FSunny.7 mph35%30.31 "Hg10 mi
Weather by CustomWeather, © 2015

See weather overviewHow to use our weather pages